{"data":{"norad_id":49458,"intl_designator":"2021-104BC","name":"STARLINK-3156","alt_names":[],"object_type":"PAYLOAD","status":"ACTIVE","operator":null,"country":"US","launch_date":"2021-11-13","launch_site_code":"AFETR","launch_vehicle":null,"mission":null,"orbit_class":"UNKNOWN","rcs_meters":null,"size_class":null,"mass_kg":null,"dimensions":null,"purposes":["comms"],"wikipedia_slug":null,"has_3d_model":false,"image_url":null,"decayed_at":null,"tle_current":{"epoch":"2026-05-24T15:25:00.484608Z","epoch_age_seconds":116201,"freshness":"FRESH","line1":"1 49458U 21104BC  26144.64236672  .00000580  00000+0  54556-4 0  9992","line2":"2 49458  53.2147 238.1560 0001197  84.2942 275.8187 15.08839298250240","mean_motion":15.08839298,"eccentricity":0.0001197,"inclination_deg":53.2147,"raan_deg":238.156,"arg_perigee_deg":84.2942,"mean_anomaly_deg":275.8187,"bstar":5.4556e-5,"rev_number":25024,"period_min":95.43759908088,"perigee_km":538.91746415869,"apogee_km":540.5736052375,"semimajor_km":6917.8825346981,"source":"CELESTRAK","updated_at":"2026-05-25T13:38:16.829950Z"}}}